Preview of NWS' New Version of Forecast
This preview is not operational and should not be used for support decisions.

Regional Weather Roundup (RWR)

Issued by National Weather Service (NWS)

                            
000
ASUS46 KSEW 211620
RWRWA 

WASHINGTON REGIONAL WEATHER ROUNDUP
NATIONAL WEATHER SERVICE SEATTLE WA
900 AM PDT SAT SEP 21 2019

NOTE:"FAIR" INDICATES FEW OR NO CLOUDS BELOW 12,000 FEET WITH NO 
SIGNIFICANT WEATHER AND/OR OBSTRUCTIONS TO VISIBILITY.

WAZ507-509-555>559-211700-
SEATTLE, TACOMA, EVERETT, AND VICINITY
  
CITY           SKY/WX    TMP DP  RH WIND       PRES   REMARKS
EVERETT        CLOUDY    58  55  90 CALM      30.16S                  
BOEING FIELD   NOT AVBL                                               
RENTON         CLOUDY    61  54  77 VRB5      30.15S                  
SEATAC AIRPORT PTSUNNY   60  54  80 SE6       30.16R                  
JBLM-MCCHORD   CLOUDY    55  55 100 CALM      30.16S                  
PUYALLUP       CLOUDY    57  57 100 CALM      30.16F                  
BREMERTON      CLOUDY    55  54  96 CALM      30.16S FOG              
JBLM-FT LEWIS  SUNNY     57  57 100 CALM      30.15S                  
TACOMA NARROWS PTSUNNY   55  54  96 S5        30.16R                  
$$
 
WAZ001-503-506-510-514-515-211700-
NORTH INTERIOR
  
CITY           SKY/WX    TMP DP  RH WIND       PRES   REMARKS
BELLINGHAM     PTSUNNY   60  54  80 S6        30.14S                  
FRIDAY HARBOR  CLOUDY    55  53  93 SE3       30.15R                  
EASTSOUND      CLOUDY    59  55  88 S6        30.13S                  
PORT ANGELES   CLOUDY    56  51  84 SW5       30.14S                  
EDIZ HOOK      CLOUDY    57  53  86 S5        30.13F                  
PORT TOWNSEND  FAIR      59  57  94 E3        30.14S                  
NAS WHIDBEY    PTSUNNY   61  55  81 SE7       30.18S                  
ARLINGTON      CLOUDY    55  53  93 CALM      30.16S                  
BURLINGTON     CLOUDY    57  57 100 CALM      30.16S                  
$$
 
WAZ020-022-039-040-504-511-512-211700-
SOUTHWEST INTERIOR
  
CITY           SKY/WX    TMP DP  RH WIND       PRES   REMARKS
SHELTON        CLOUDY    57  54  89 SW5       30.13S                  
OLYMPIA        MOSUNNY   55  53  93 S3        30.15F                  
CHEHALIS       CLOUDY    57  55  94 S6        30.16S FOG              
KELSO          CLOUDY    59  56  89 CALM      30.17S                  
VANCOUVER      MOSUNNY   59  55  87 CALM      30.16S                  
SCAPPOOSE, OR  CLOUDY    56  55  97 CALM      30.16S FOG              
PORTLAND, OR   PTSUNNY   59  56  89 W3        30.17R                  
$$
 
WAZ021-516-517-211700-
WASHINGTON COAST
  
CITY           SKY/WX    TMP DP  RH WIND       PRES   REMARKS
FORKS          CLOUDY    56  54  93 E5        30.12S                  
HOQUIAM        CLOUDY    57  57 100 E5        30.15S FOG              
ASTORIA, OR    CLOUDY    61  59  93 E5        30.14S                  
$$
 
WAZ019-023-024-040-567>569-211700-
CASCADE MOUNTAINS AND COLUMBIA GORGE
  
CITY           SKY/WX    TMP DP  RH WIND       PRES   REMARKS
STAMPEDE PASS  FOG       47  45  93 VRB3      30.16S VSB<1/4          
TROUTDALE, OR  CLOUDY    60  55  83 W3        30.16S                  
HOOD RIVER, OR SUNNY     59  52  77 S3        30.14S                  
THE DALLES, OR SUNNY     62  52  69 N5        30.12S                  
$$

WAZ026-027-041>044-520-521-211700-
EAST SLOPES
  
CITY           SKY/WX    TMP DP  RH WIND       PRES   REMARKS
OMAK           MOSUNNY   54  43  66 CALM      30.10S                  
WENATCHEE      SUNNY     56  45  66 SW6       30.08S                  
ELLENSBURG     SUNNY     59  46  62 VRB5      30.10S                  
YAKIMA         SUNNY     58  44  60 W5        30.11R                  
SUNNYSIDE ARPT SUNNY     56  47  73 CALM      30.10S                  
YAKIMA TC      FAIR      54  45  71 CALM      30.09R                  
$$

WAZ028-034-035-211700-
COLUMBIA BASIN
  
CITY           SKY/WX    TMP DP  RH WIND       PRES   REMARKS
EPHRATA        MOSUNNY   53  45  74 NE7       30.09R                  
MOSES LAKE     MOSUNNY   56  46  69 SE6       30.09S                  
PASCO          MOSUNNY   62  50  64 CALM      30.10F                  
RICHLAND ARPT  SUNNY     62  51  66 S3        30.10S                  
HERMISTON, OR    N/A     64  49  57 SW6       30.11S                  
$$

WAZ036>038-211700-
NORTHEAST WASHINGTON
  
CITY           SKY/WX    TMP DP  RH WIND       PRES   REMARKS
SPOKANE GEIGER PTSUNNY   50  45  83 S6        30.12R                  
SPOKANE FELTS  MOSUNNY   55  48  77 CALM      30.13R                  
FAIRCHILD AFB  MOSUNNY   52  52 100 S8        30.11R                  
COEURDALENE,ID MOSUNNY   52  47  83 S7        30.13S                  
DEER PARK      MOSUNNY   49  47  93 SE3       30.13R                  
$$

WAZ029>033-211700-
SOUTHEAST WASHINGTON
  
CITY           SKY/WX    TMP DP  RH WIND       PRES   REMARKS
PULLMAN        MOSUNNY   55  47  74 VRB6      30.15S                  
LEWISTON, ID   CLOUDY    57  53  86 CALM      30.13R                  
WALLA WALLA    SUNNY     62  47  57 S10       30.13R                  
PENDLETON, OR  SUNNY     57  46  66 S8        30.13S                  
$$